Hlavní strana
METAR-TAF:

METAR-TAF

Letiště :

Pickens, Jižní Karolína, Spojené státy americké

zeměpisná šířka: 34-48-36N, zeměpisná délka: 082-42-10W, výška: 309 m

Aktuální stav počasí

Zpráva byla vytvořena před 2 hodinami a 18 minutami, v 15:35 UTC
Bezvětří
Teplota 7°C
Vlhkost vzduchu 100%
Tlak 1020 hPa
Viditelnost: 0.4 km
Zataženo ve výšce 200 ft
mlha

METAR: KLQK 181535Z AUTO 00000KT 1/4SM FG OVC002 07/07 A3013 RMK AO2 T00650065

Čas: 12:53 (17:53 UTC)


TAF: chybějící

Stav a předpovědi počasí z více než 4 000 letišť (zprávy METAR a TAF).

Červené a žluté tečky na mapě představují dostupné meteorologické stanice.

Když kurzor umístíte na tečku, zobrazí se název stanice.

Pak kliknutím zobrazíte stav a předpověď počasí.

Chcete-li změnit mapu, kliknutím na zelené tlačítko se znaménkem +mapu přiblížíte, kliknutím na zelené tlačítko se znaménkem – mapu oddálíte a kliknutím na zelené šipky přejdete na sousední mapy.


METAR-TAF: